TimeMST,TemperatureF,Dew PointF,Humidity,Sea Level PressureIn,VisibilityMPH,Wind Direction,Wind SpeedMPH,Gust SpeedMPH,PrecipitationIn,Events,Conditions,WindDirDegrees,DateUTC
12:56 AM,18.0,16.0,92,30.05,7.0,SE,8.1,-,N/A,,Scattered Clouds,140,2012-11-30 07:56:00
1:39 AM,19.4,15.8,86,29.92,6.0,SE,9.2,-,N/A,,Mostly Cloudy,140,2012-11-30 08:39:00
1:56 AM,19.0,16.0,88,30.03,6.0,SE,9.2,-,N/A,,Scattered Clouds,140,2012-11-30 08:56:00
2:56 AM,19.0,16.0,88,30.01,7.0,SSE,9.2,-,N/A,,Clear,150,2012-11-30 09:56:00
3:56 AM,19.9,17.1,89,30.00,7.0,SSE,8.1,-,N/A,,Clear,160,2012-11-30 10:56:00
4:56 AM,19.9,17.1,89,29.99,8.0,SE,9.2,-,N/A,,Clear,140,2012-11-30 11:56:00
5:56 AM,19.0,16.0,88,29.99,8.0,SE,8.1,-,N/A,,Clear,130,2012-11-30 12:56:00
6:56 AM,19.0,16.0,88,29.97,8.0,SE,9.2,-,N/A,,Clear,140,2012-11-30 13:56:00
7:56 AM,19.9,17.1,89,29.94,7.0,SSE,17.3,-,N/A,,Clear,150,2012-11-30 14:56:00
8:56 AM,21.9,19.0,89,29.92,7.0,SSE,17.3,-,N/A,,Clear,160,2012-11-30 15:56:00
9:56 AM,26.1,24.1,92,29.92,8.0,South,13.8,-,N/A,,Clear,170,2012-11-30 16:56:00
10:56 AM,30.0,27.0,88,29.87,8.0,SSE,16.1,21.9,N/A,,Clear,160,2012-11-30 17:56:00
11:56 AM,32.0,28.0,85,29.83,10.0,South,17.3,-,N/A,,Clear,170,2012-11-30 18:56:00
12:56 PM,34.0,28.0,79,29.80,10.0,South,19.6,-,N/A,,Clear,170,2012-11-30 19:56:00
1:56 PM,34.0,27.0,75,29.77,10.0,SSE,15.0,-,N/A,,Clear,160,2012-11-30 20:56:00
2:56 PM,34.0,27.0,75,29.74,10.0,SSE,12.7,-,N/A,,Clear,150,2012-11-30 21:56:00
3:56 PM,33.1,26.1,75,29.74,10.0,SSE,10.4,-,N/A,,Clear,160,2012-11-30 22:56:00
5:56 PM,32.0,26.1,79,29.71,10.0,South,12.7,-,N/A,,Clear,170,2012-12-01 00:56:00
6:56 PM,32.0,26.1,79,29.70,10.0,South,12.7,-,N/A,,Clear,180,2012-12-01 01:56:00
7:56 PM,30.0,25.0,82,29.70,10.0,SSW,6.9,-,N/A,,Clear,200,2012-12-01 02:56:00
8:56 PM,27.0,23.0,85,29.71,10.0,WSW,4.6,-,N/A,,Clear,240,2012-12-01 03:56:00
9:56 PM,24.1,21.0,88,29.70,10.0,South,4.6,-,N/A,,Clear,170,2012-12-01 04:56:00
10:56 PM,28.0,25.0,88,29.67,10.0,Calm,Calm,-,N/A,,Overcast,0,2012-12-01 05:56:00
11:56 PM,25.0,21.0,85,29.68,10.0,West,6.9,-,N/A,,Clear,280,2012-12-01 06:56:00